Location: Cortada Guamacho
(10.5667°N, 67.0833°W)
Time: 04:14:20
(UTC+00:00)

SWIFT - Pass Details

Date: 05 July 2022
Orbit: 539 x 553 km, 20.6° (Epoch: 13 August)

Event Time Altitude Azimuth Distance (km) Brightness Sun altitude
Rises 23:23:14 0° 250° (WSW) 2,708 6.6 -7.2°
Reaches altitude 10° 23:25:31 10° 250° (WSW) 1,814 5.7 -7.8°
Maximum altitude 23:29:45 88° 166° (SSE) 550 2.3 -8.7°
Drops below altitude 10° 23:33:58 10° 72° (ENE) 1,808 4.5 -9.6°
Enters shadow 23:35:01 - 72° (ENE) 2,217 5.0 -9.9°
